This is the latest recevied weather packets stored in our database for station/object KC3DGM. If no packets are shown the sender has not sent any weather packets the latest 10 day(s).
| Time | Temp. | Humidity | Pressure | Rain* | Wind** | Luminosity | Snow |
|---|---|---|---|---|---|---|---|
| 1777539613 | 6.67° C | 98% | 981.2 hPa | 3.05 mm | - | 0 W/m² | - |
| 1777539309 | 6.67° C | 97% | 981 hPa | 4.32 mm | - | 0 W/m² | - |
| 1777539006 | 7.22° C | 97% | 981 hPa | 4.83 mm | - | 0 W/m² | - |
| 1777538702 | 7.22° C | 97% | 980.9 hPa | 3.05 mm | - | 0 W/m² | - |
| 1777538396 | 7.22° C | 97% | 981 hPa | 1.27 mm | - | 0 W/m² | - |
| 1777538093 | 7.22° C | 97% | 981 hPa | 1.78 mm | - | 0 W/m² | - |
| 1777537787 | 7.22° C | 97% | 981 hPa | 1.78 mm | - | 0 W/m² | - |
| 1777537485 | 7.22° C | 97% | 980.7 hPa | 0 mm | - | 0 W/m² | - |
| 1777537181 | 7.22° C | 96% | 980.9 hPa | 0 mm | - | 0 W/m² | - |
| 1777536877 | 7.78° C | 96% | 980.9 hPa | 0 mm | - | 0 W/m² | - |
| 1777536575 | 7.78° C | 96% | 980.8 hPa | 0 mm | - | 0 W/m² | - |
| 1777536271 | 7.22° C | 96% | 980.9 hPa | 0 mm | - | 0 W/m² | - |
| 1777535967 | 7.78° C | 96% | 981 hPa | 0 mm | - | 0 W/m² | - |
| 1777535663 | 7.22° C | 96% | 980.6 hPa | 0 mm | - | 0 W/m² | - |
| 1777535360 | 7.22° C | 96% | 980.9 hPa | 0 mm | - | 0 W/m² | - |
| 1777535057 | 7.22° C | 96% | 980.7 hPa | 0 mm | - | 0 W/m² | - |
| 1777534755 | 7.22° C | 96% | 980.6 hPa | 0 mm | - | 0 W/m² | - |
| 1777534451 | 7.22° C | 96% | 980.6 hPa | 0 mm | - | 0 W/m² | - |
| 1777534148 | 7.22° C | 95% | 980.8 hPa | 0 mm | - | 0 W/m² | - |
| 1777533846 | 7.22° C | 95% | 980.9 hPa | 0 mm | - | 0 W/m² | - |
| 1777533543 | 7.78° C | 94% | 980.7 hPa | 0 mm | - | 0 W/m² | - |
| 1777533239 | 7.78° C | 94% | 980.8 hPa | 0 mm | - | 0 W/m² | - |
| 1777532935 | 7.78° C | 94% | 981 hPa | 0 mm | - | 0 W/m² | - |
| 1777532632 | 7.78° C | 94% | 980.9 hPa | 0 mm | - | 0 W/m² | - |
| 1777532329 | 7.78° C | 94% | 980.8 hPa | 0 mm | - | 0 W/m² | - |
* Rain latest hour (hover to see other rain measurements)
** Current wind speed in m/s (hover to see current wind gust speed)